Location: Casco Volunteer Fire Department
(44.5576°N, 87.6146°W)
Time: 04:38:27
(UTC+00:00)

CORIOLIS - Pass Details

Date: 22 January 2026
Orbit: 816 x 835 km, 98.7° (Epoch: 10 February)

Event Time Altitude Azimuth Distance (km) Brightness Sun altitude
Rises 23:16:35 0° 169° (SSE) 3,356 7.5 -5.8°
Reaches altitude 10° 23:18:56 10° 170° (S) 2,429 6.8 -6.2°
Maximum altitude 23:24:19 76° 257° (WSW) 862 4.5 -7.1°
Drops below altitude 10° 23:29:46 10° 343° (NNW) 2,455 6.6 -8.0°
Sets 23:32:09 0° 345° (NNW) 3,395 7.3 -8.4°
